Change the Weather History Date:

Tuesday, January 22, 2013

  Actual Average (KHKY) Record (KHKY)
Temperature  
Mean Temperature 30 °F -  
Max Temperature 36 °F 47 °F 70 °F (1967)
Min Temperature 25 °F 28 °F 4 °F (1970)
Degree Days  
Heating Degree Days 34    
Moisture  
Dew Point -2 °F    
Average Humidity 25    
Maximum Humidity 50    
Minimum Humidity 12    
Precipitation  
Precipitation 0.00 in - - ()
Sea Level Pressure  
Sea Level Pressure 30.19 in    
Wind  
Wind Speed 7 mph (West)    
Max Wind Speed 16 mph    
Max Gust Speed 24 mph    
Visibility 10 miles    
Events      
Averages and records for this station are not official NWS values.
T = Trace of Precipitation, MM = Missing Value Source: NWS Daily Summary

Daily Weather History Graph

Daily Weather History Graph

Search for Another Location

Airport or City:

Trip Planner

Search our weather history database for the weather conditions in past years. The results will help you decide how hot, cold, wet, or windy it might be!

Date:

Astronomy

Jan. 22, 2013 Rise Set
Actual Time 7:33 AM EST 5:43 PM EST
Civil Twilight 7:05 AM EST 6:11 PM EST
Nautical Twilight 6:34 AM EST 6:42 PM EST
Astronomical Twilight 6:04 AM EST 7:12 PM EST
Moon 2:06 PM EST (1/22) 3:52 AM EST (1/22)
Length of Visible Light 11h 05m
Length of Day
10h 10m
Waxing Gibbous, 82% of the Moon is Illuminated
Jan 22
Waxing Gibbous
Jan 26
Full
Feb 3
Last Quarter
Feb 10
New
Feb 17
First Quarter

Hourly Weather History & Observations

Time (EST) Temp. Windchill Dew Point Humidity Pressure Visibility Wind Dir Wind Speed Gust Speed Precip Events Conditions
12:35 AM 35.2 °F 28.8 °F 7.7 °F 32% 30.05 in 10.0 mi West 8.1 mph - N/A   Clear
12:55 AM 34.3 °F 29.2 °F 6.6 °F 31% 30.05 in 10.0 mi West 5.8 mph - N/A   Clear
1:15 AM 34.0 °F 23.8 °F 6.1 °F 31% 30.05 in 10.0 mi West 16.1 mph 24.2 mph N/A   Clear
1:35 AM 33.3 °F 27.1 °F 6.3 °F 32% 30.05 in 10.0 mi West 6.9 mph - N/A   Clear
1:55 AM 32.9 °F 25.3 °F 5.9 °F 32% 30.05 in 10.0 mi WSW 9.2 mph 16.1 mph N/A   Clear
2:15 AM 32.2 °F 26.7 °F 5.9 °F 33% 30.06 in 10.0 mi SW 5.8 mph 17.3 mph N/A   Clear
2:55 AM 32.0 °F 26.4 °F 5.9 °F 33% 30.07 in 10.0 mi SW 5.8 mph 19.6 mph N/A   Clear
3:15 AM 30.9 °F 25.2 °F 7.0 °F 37% 30.07 in 10.0 mi SW 5.8 mph - N/A   Clear
3:35 AM 30.2 °F 24.3 °F 7.3 °F 38% 30.08 in 10.0 mi WSW 5.8 mph - N/A   Clear
3:55 AM 31.1 °F 21.9 °F 5.4 °F 34% 30.07 in 10.0 mi West 11.5 mph 23.0 mph N/A   Clear
4:15 AM 30.7 °F 22.6 °F 5.7 °F 35% 30.09 in 10.0 mi WNW 9.2 mph 18.4 mph N/A   Clear
4:35 AM 30.2 °F 22.6 °F 4.6 °F 34% 30.09 in 10.0 mi West 8.1 mph - N/A   Clear
4:55 AM 29.8 °F 22.2 °F 4.3 °F 34% 30.09 in 10.0 mi West 8.1 mph - N/A   Clear
5:15 AM 29.3 °F - 3.9 °F 34% 30.10 in 10.0 mi Calm Calm - N/A   Clear
5:35 AM 28.4 °F - 5.2 °F 37% 30.11 in 10.0 mi Calm Calm - N/A   Clear
5:55 AM 28.4 °F - 5.0 °F 37% 30.12 in 10.0 mi Calm Calm - N/A   Clear
6:15 AM 27.9 °F - 4.6 °F 37% 30.14 in 10.0 mi Calm Calm - N/A   Clear
6:35 AM 27.5 °F - 4.6 °F 38% 30.14 in 10.0 mi Calm Calm - N/A   Clear
6:55 AM 26.6 °F - 5.0 °F 40% 30.15 in 10.0 mi Calm Calm - N/A   Clear
7:15 AM 25.7 °F - 5.9 °F 43% 30.17 in 10.0 mi Calm Calm - N/A   Clear
7:35 AM 26.2 °F 22.1 °F 4.8 °F 40% 30.18 in 10.0 mi West 3.5 mph - N/A   Clear
7:55 AM 25.5 °F - 5.7 °F 43% 30.18 in 10.0 mi Calm Calm - N/A   Clear
8:15 AM 25.5 °F - 9.1 °F 50% 30.19 in 10.0 mi Calm Calm - N/A   Clear
8:35 AM 27.9 °F 22.6 °F 2.1 °F 33% 30.20 in 10.0 mi NNW 4.6 mph - N/A   Clear
8:55 AM 28.0 °F 22.8 °F 0.5 °F 31% 30.21 in 10.0 mi North 4.6 mph - N/A   Clear
9:15 AM 28.8 °F 25.0 °F -0.9 °F 28% 30.23 in 10.0 mi NW 3.5 mph - N/A   Clear
9:35 AM 29.8 °F 24.9 °F -0.6 °F 27% 30.23 in 10.0 mi NNW 4.6 mph - N/A   Clear
9:55 AM 29.8 °F - -2.6 °F 25% 30.24 in 10.0 mi Calm Calm - N/A   Clear
10:15 AM 30.4 °F - -2.4 °F 24% 30.25 in 10.0 mi Calm Calm - N/A   Clear
10:35 AM 31.1 °F 26.4 °F -1.7 °F 25% 30.25 in 10.0 mi WNW 4.6 mph - N/A   Clear
10:55 AM 31.8 °F 24.6 °F -3.5 °F 22% 30.25 in 10.0 mi SW 8.1 mph - N/A   Clear
11:15 AM 32.5 °F 24.8 °F -0.9 °F 24% 30.25 in 10.0 mi WNW 9.2 mph - N/A   Clear
11:35 AM 32.4 °F - -7.2 °F 18% 30.24 in 10.0 mi Calm Calm - N/A   Clear
11:55 AM 33.6 °F 25.6 °F -5.8 °F 18% 30.23 in 10.0 mi WSW 10.4 mph - N/A   Clear
12:15 PM 33.4 °F 29.1 °F -5.4 °F 19% 30.23 in 10.0 mi NW 4.6 mph - N/A   Clear
12:35 PM 33.8 °F 26.4 °F -8.1 °F 16% 30.22 in 10.0 mi WSW 9.2 mph - N/A   Clear
12:55 PM 34.7 °F 25.9 °F -8.0 °F 16% 30.22 in 10.0 mi WSW 12.7 mph 18.4 mph N/A   Clear
1:15 PM 35.1 °F 26.9 °F -9.0 °F 15% 30.21 in 10.0 mi WSW 11.5 mph 21.9 mph N/A   Clear
1:35 PM 35.2 °F 27.6 °F -8.9 °F 15% 30.21 in 10.0 mi West 10.4 mph 21.9 mph N/A   Clear
1:55 PM 35.8 °F 27.3 °F -9.4 °F 14% 30.20 in 10.0 mi West 12.7 mph 23.0 mph N/A   Clear
2:15 PM 36.1 °F 29.3 °F -10.1 °F 14% 30.20 in 10.0 mi West 9.2 mph 19.6 mph N/A   Clear
2:35 PM 35.8 °F 27.8 °F -11.9 °F 13% 30.21 in 10.0 mi West 11.5 mph 20.7 mph N/A   Clear
2:55 PM 36.1 °F 29.3 °F -11.2 °F 13% 30.20 in 10.0 mi WNW 9.2 mph 21.9 mph N/A   Clear
3:15 PM 36.5 °F 28.2 °F -12.8 °F 12% 30.19 in 10.0 mi WNW 12.7 mph 19.6 mph N/A   Clear
3:35 PM 36.9 °F 28.2 °F -11.9 °F 12% 30.20 in 10.0 mi WNW 13.8 mph 18.4 mph N/A   Clear
3:55 PM 36.9 °F 28.7 °F -12.5 °F 12% 30.20 in 10.0 mi WNW 12.7 mph 23.0 mph N/A   Clear
4:15 PM 36.5 °F 29.2 °F -12.5 °F 12% 30.20 in 10.0 mi West 10.4 mph 18.4 mph N/A   Clear
4:35 PM 35.8 °F 28.3 °F -11.4 °F 13% 30.21 in 10.0 mi West 10.4 mph 19.6 mph N/A   Clear
4:55 PM 35.6 °F 28.0 °F -11.6 °F 13% 30.21 in 10.0 mi West 10.4 mph 17.3 mph N/A   Clear
5:15 PM 35.1 °F 27.9 °F -9.8 °F 14% 30.21 in 10.0 mi West 9.2 mph - N/A   Clear
5:35 PM 34.3 °F 26.5 °F -9.2 °F 15% 30.22 in 10.0 mi West 10.4 mph - N/A   Clear
5:55 PM 33.8 °F 25.8 °F -8.1 °F 16% 30.22 in 10.0 mi West 10.4 mph 17.3 mph N/A   Clear
6:15 PM 32.9 °F 26.7 °F -7.8 °F 17% 30.23 in 10.0 mi West 6.9 mph - N/A   Clear
6:35 PM 32.0 °F 28.7 °F -6.0 °F 19% 30.24 in 10.0 mi WNW 3.5 mph - N/A   Clear
6:55 PM 31.1 °F 27.7 °F -6.2 °F 20% 30.24 in 10.0 mi WNW 3.5 mph - N/A   Clear
7:15 PM 31.1 °F 25.4 °F -8.1 °F 18% 30.23 in 10.0 mi NNW 5.8 mph - N/A   Clear
7:35 PM 31.1 °F 25.4 °F -8.1 °F 18% 30.23 in 10.0 mi NW 5.8 mph - N/A   Scattered Clouds
7:55 PM 31.3 °F 26.6 °F -6.3 °F 20% 30.24 in 10.0 mi NNW 4.6 mph - N/A   Overcast
8:15 PM 31.3 °F - -5.6 °F 20% 30.24 in 10.0 mi Calm Calm - N/A   Overcast
8:35 PM 30.9 °F 26.2 °F -6.0 °F 20% 30.24 in 10.0 mi NW 4.6 mph - N/A   Mostly Cloudy
8:55 PM 30.0 °F 25.2 °F -4.2 °F 23% 30.25 in 10.0 mi WNW 4.6 mph - N/A   Scattered Clouds
9:15 PM 30.7 °F 22.6 °F -6.7 °F 20% 30.26 in 10.0 mi WNW 9.2 mph - N/A   Mostly Cloudy
9:35 PM 31.3 °F 25.6 °F -6.3 °F 20% 30.27 in 10.0 mi WNW 5.8 mph - N/A   Overcast
9:55 PM 31.8 °F 24.6 °F -5.6 °F 20% 30.27 in 10.0 mi WNW 8.1 mph - N/A   Overcast
10:15 PM 31.1 °F 25.4 °F -4.0 °F 22% 30.26 in 10.0 mi West 5.8 mph - N/A   Overcast
10:35 PM 31.1 °F 25.4 °F -4.2 °F 22% 30.26 in 10.0 mi West 5.8 mph - N/A   Overcast
10:55 PM 31.5 °F 25.8 °F -4.2 °F 22% 30.27 in 10.0 mi West 5.8 mph - N/A   Overcast
11:15 PM 31.1 °F 25.4 °F -2.2 °F 24% 30.27 in 10.0 mi West 5.8 mph - N/A   Overcast
11:35 PM 30.7 °F 24.1 °F -0.9 °F 26% 30.27 in 10.0 mi West 6.9 mph - N/A   Overcast
11:55 PM 30.7 °F 24.1 °F -1.1 °F 26% 30.27 in 10.0 mi West 6.9 mph - N/A   Mostly Cloudy